Regional Weather Roundup
Issued by NWS

Home | Current Version | Previous Version | Graphics & Text | Print | Product List | Glossary On
Versions: 1 2 3 4 5 6 7 8 9 10 11 12 13 14 15 16 17 18 19 20 21 22 23 24 25 26 27 28 29 30 31 32 33 34 35 36 37 38 39 40 41 42 43 44 45 46 47 48 49 50
000
ASUS43 KIND 262159
RWRIN

WEATHER ROUNDUP FOR INDIANA
NATIONAL WEATHER SERVICE INDIANAPOLIS IN
600 PM EDT FRI AUG 26 2016

NOTE: "FAIR" INDICATES FEW OR NO CLOUDS BELOW 12,000 FEET WITH NO
SIGNIFICANT WEATHER AND/OR OBSTRUCTIONS TO VISIBILITY.

* - STATION DOES NOT REPORT WEATHER SUCH AS PRECIPITATION OR FOG.

+ - STATION NOT QUALITY CONTROLLED BY THE NATIONAL WEATHER SERVICE.
    USE DATA WITH CAUTION...ESPECIALLY DEWPOINT AND RELATIVE
    HUMIDITY OBSERVATIONS.

INZ001>003-010>013-019-020-262300-
NORTHWEST INDIANA

CITY           SKY/WX    TMP DP  RH WIND       PRES   REMARKS
KNOX *+        PTSUNNY   77  45  31 NE3       30.12R
MONTICELLO +   CLOUDY    80  69  69 CALM      30.09F

$$

LMZ046-743>745-262300-
SOUTHERN LAKE MICHIGAN

STATION/POSITION TIME  TEMP    WIND        PRES    WAVE
                       AIR SEA DIR/SP/G            HT
                 (UTC) (F)     (DEG/KT/KT) (MB)    (FT)
BURNS HARBOR     2100   74      50/ 12/ 13 1020.3S
MICHIGAN CITY    2100   73      10/ 12/ 13   N/A
5NW MICH CITY    2100   74 75   30/ 10/ 14   N/A     2

$$

INZ004-005-014>016-021>024-262300-
NORTH CENTRAL INDIANA

CITY           SKY/WX    TMP DP  RH WIND       PRES   REMARKS
GOSHEN         CLOUDY    80  64  58 NE5       30.12S
SOUTH BEND     CLOUDY    80  65  59 CALM      30.12S

$$

INZ006>009-017-018-025>027-262300-
NORTHEAST INDIANA

CITY           SKY/WX    TMP DP  RH WIND       PRES   REMARKS
ANGOLA *+      SUNNY     82  66  57 CALM      30.13S
FORT WAYNE     CLOUDY    82  66  58 CALM      30.11S

$$

INZ028-029-035-036-043>045-051>053-262300-
WEST CENTRAL INDIANA

CITY           SKY/WX    TMP DP  RH WIND       PRES   REMARKS
CRAWFORDSVL +  LGT RAIN  71  71 100 CALM      30.09F
LAFAYETTE      CLOUDY    79  73  82 NE5       30.08F
TERRE HAUTE    CLOUDY    76  73  91 NW3       30.08F

$$

INZ030>032-037>040-046>048-054>057-064-065-262300-
CENTRAL INDIANA

CITY           SKY/WX    TMP DP  RH WIND       PRES   REMARKS
COLUMBUS       SUNNY     81  75  83 W5        30.07F
INDIANAPOLIS   CLOUDY    84  71  65 E16       30.05F
-EAGLE CREEK   CLOUDY    86  72  62 NW6       30.05F
KOKOMO *+      CLOUDY    81  73  78 NE7       30.09F
MT COMFORT *+  CLOUDY    77  73  88 S12G17    30.09F
SHELBYVILLE    MOSUNNY   85  70  60 CALM      30.07S

$$

INZ033-034-041-042-049-050-058-059-262300-
EAST CENTRAL INDIANA

CITY           SKY/WX    TMP DP  RH WIND       PRES   REMARKS
MUNCIE         MOSUNNY   84  74  71 E5        30.10R

$$

INZ060-061-067>069-081>083-085>088-262300-
SOUTHWEST INDIANA

CITY           SKY/WX    TMP DP  RH WIND       PRES   REMARKS
EVANSVILLE     PTSUNNY   83  71  67 W9G20     30.06R THUNDER
HUNTINGBURG *+ SUNNY     91  72  52 SE3       30.05F HX  98

$$

INZ062-063-066-070>080-084-089>092-262300-
SOUTH CENTRAL AND SOUTHEAST INDIANA

CITY           SKY/WX    TMP DP  RH WIND       PRES   REMARKS
BLOOMINGTON    CLOUDY    84  69  60 CALM      30.07F
MADISON *+     SUNNY     90  70  51 S5        30.09F HX  95

$$





USA.gov is the U.S. government's official web portal to all federal, state and local government web resources and services.